EW9507 Weather Reports


Display with metric or nautical units.
time (UTC)temp
F
wind
direction
speed
MPH
gust
MPH
rain 1hr
in
rain 24hr
in
rain mn
in
humidity
%
barometer
mb
20260831233012 80 42 5.0 10.0 0.00 0.00 0.00 12 1009.7
20260831231513 80 339 3.0 8.0 0.00 0.00 0.00 11 1009.7
20260831230014 81 44 6.0 11.0 0.00 0.00 0.00 11 1009.8
20260831224506 80 286 4.0 9.0 0.00 0.00 0.00 11 1010.1
20260831223007 82 82 6.0 12.0 0.00 0.00 0.00 11 1010.1
20260831221507 81 6 4.0 11.0 0.00 0.00 0.00 11 1010.2
20260831220006 82 328 4.0 8.0 0.00 0.00 0.00 11 1010.4
20260831214503 82 226 4.0 10.0 0.00 0.00 0.00 11 1010.4
20260831213007 82 240 2.0 7.0 0.00 0.00 0.00 11 1010.6
20260831211501 81 28 3.0 14.0 0.00 0.00 0.00 11 1010.8
20260831210057 81 219 6.0 14.0 0.00 0.00 0.00 10 1010.9
20260831204554 81 271 8.0 16.0 0.00 0.00 0.00 11 1011.0
20260831203101 80 257 6.0 14.0 0.00 0.00 0.00 11 1011.2
20260831201554 80 203 7.0 10.0 0.00 0.00 0.00 11 1011.1
20260831200057 79 276 8.0 18.0 0.00 0.00 0.00 13 1011.4
20260831194601 79 322 8.0 18.0 0.00 0.00 0.00 13 1011.3
20260831193046 78 293 9.0 15.0 0.00 0.00 0.00 14 1011.4
20260831191545 79 245 8.0 16.0 0.00 0.00 0.00 15 1011.5
20260831190054 77 269 6.0 14.0 0.00 0.00 0.00 16 1011.7
20260831184537 76 300 6.0 12.0 0.00 0.00 0.00 20 1011.6
20260831183040 76 293 7.0 12.0 0.00 0.00 0.00 20 1011.8
20260831181533 74 300 4.0 10.0 0.00 0.00 0.00 22 1012.0
20260831180028 74 35 4.0 11.0 0.00 0.00 0.00 23 1012.1
20260831174529 73 328 4.0 11.0 0.00 0.00 0.00 24 1012.2
20260831173026 73 328 7.0 13.0 0.00 0.00 0.00 25 1012.1
20260831171525 73 277 7.0 15.0 0.00 0.00 0.00 24 1012.3
20260831170023 73 265 10.0 16.0 0.00 0.00 0.00 27 1012.3
20260831164524 73 284 11.0 19.0 0.00 0.00 0.00 27 1012.1
20260831163022 73 253 8.0 14.0 0.00 0.00 0.00 24 1011.9
20260831161517 73 266 8.0 16.0 0.00 0.00 0.00 25 1011.7
20260831160011 72 258 9.0 14.0 0.00 0.00 0.00 26 1011.5
20260831154508 71 276 11.0 17.0 0.00 0.00 0.00 29 1011.4
20260831153005 69 269 9.0 14.0 0.00 0.00 0.00 32 1011.2
20260831151600 68 257 11.0 16.0 0.00 0.00 0.00 35 1011.2
20260831151503 68 269 12.0 16.0 0.00 0.00 0.00 35 1011.2
20260831150103 66 262 11.0 14.0 0.00 0.00 0.00 38 1011.2
20260831144555 63 262 6.0 8.0 0.00 0.00 0.00 51 1011.2
20260831143045 61 276 3.0 6.0 0.00 0.00 0.00 61 1011.1
20260831141544 59 252 3.0 7.0 0.00 0.00 0.00 67 1011.1
20260831140035 57 290 3.0 6.0 0.00 0.00 0.00 74 1011.1
20260831134530 54 1 0.0 3.0 0.00 0.00 0.00 80 1011.1
20260831133032 49 37 1.0 5.0 0.00 0.00 0.00 87 1010.8
20260831131524 46 32 5.0 10.0 0.00 0.00 0.00 88 1010.7
20260831130018 44 190 5.0 7.0 0.00 0.00 0.00 89 1010.1
20260831124519 42 295 0.0 5.0 0.00 0.00 0.00 89 1010.1
20260831123013 42 178 2.0 4.0 0.00 0.00 0.00 89 1010.0
20260831121511 42 119 3.0 4.0 0.00 0.00 0.00 86 1009.8
20260831120007 42 231 0.0 2.0 0.00 0.00 0.00 87 1009.7
20260831114502 43 178 0.0 4.0 0.00 0.00 0.00 87 1009.4
20260831113106 43 178 2.0 4.0 0.00 0.00 0.00 86 1009.1
20260831111611 44 233 2.0 4.0 0.00 0.00 0.00 83 1009.1
20260831110056 45 269 1.0 2.0 0.00 0.00 0.00 85 1008.9
20260831104551 46 113 1.0 2.0 0.00 0.00 0.00 85 1008.8
20260831103054 45 39 1.0 3.0 0.00 0.00 0.00 87 1008.7
20260831101552 45 81 2.0 5.0 0.00 0.00 0.00 82 1008.4
20260831100045 46 197 1.0 3.0 0.00 0.00 0.00 83 1008.3
20260831094542 47 250 0.0 2.0 0.00 0.00 0.00 85 1008.1
20260831093039 46 328 2.0 3.0 0.00 0.00 0.00 87 1007.8
20260831091553 45 202 3.0 4.0 0.00 0.00 0.00 86 1007.3
20260831090037 45 223 0.0 3.0 0.00 0.00 0.00 86 1007.2
20260831084533 45 178 0.0 4.0 0.00 0.00 0.00 86 1007.3
20260831083032 45 112 2.0 4.0 0.00 0.00 0.00 86 1007.6
20260831081536 45 193 3.0 5.0 0.00 0.00 0.00 85 1007.4
20260831080054 45 216 1.0 2.0 0.00 0.00 0.00 85 1007.1
20260831074524 46 124 1.0 5.0 0.00 0.00 0.00 84 1007.2
20260831073052 46 223 2.0 5.0 0.00 0.00 0.00 83 1007.4
20260831071519 46 142 0.0 2.0 0.00 0.00 0.00 82 1007.3
20260831070017 47 252 2.0 3.0 0.00 0.00 0.00 82 1007.6
20260831064509 48 236 1.0 4.0 0.00 0.00 0.00 82 1007.5
20260831063015 49 269 0.0 2.0 0.00 0.00 0.00 82 1007.5
20260831061507 48 76 1.0 4.0 0.00 0.00 0.00 80 1007.4
20260831060005 49 223 3.0 9.0 0.00 0.00 0.00 81 1007.2
20260831054558 50 236 2.0 4.0 0.00 0.00 0.00 80 1006.9
20260831053056 50 135 1.0 3.0 0.00 0.00 0.00 81 1006.8
20260831051555 50 191 2.0 4.0 0.00 0.00 0.00 80 1006.7
20260831050053 51 208 4.0 6.0 0.00 0.00 0.00 78 1006.9
20260831044556 51 213 1.0 2.0 0.00 0.00 0.00 80 1006.5
20260831043045 51 238 2.0 3.0 0.00 0.00 0.00 77 1006.5
20260831041553 52 135 1.0 2.0 0.00 0.00 0.00 75 1006.5
20260831040040 53 138 1.0 3.0 0.00 0.00 0.00 78 1006.4
20260831034535 53 303 3.0 4.0 0.00 0.00 0.00 75 1006.4
20260831033038 55 245 1.0 3.0 0.00 0.00 0.00 71 1006.2
20260831031532 56 347 1.0 5.0 0.00 0.00 0.00 71 1005.9
20260831030025 57 1 3.0 5.0 0.00 0.00 0.00 69 1005.6
20260831024551 58 28 3.0 6.0 0.00 0.00 0.00 67 1005.4
20260831023047 59 333 3.0 9.0 0.00 0.00 0.00 65 1005.0
20260831021547 61 15 5.0 7.0 0.00 0.00 0.00 63 1004.6
20260831020038 62 49 3.0 5.0 0.00 0.00 0.00 62 1004.4
20260831014534 63 94 4.0 8.0 0.00 0.00 0.00 61 1004.2
20260831013039 63 52 6.0 10.0 0.00 0.00 0.00 60 1004.1
20260831011541 64 15 5.0 11.0 0.00 0.00 0.00 59 1004.0
20260831010029 64 60 7.0 12.0 0.00 0.00 0.00 58 1004.0
20260831004529 65 27 9.0 13.0 0.00 0.00 0.00 58 1004.0
20260831003027 65 18 7.0 15.0 0.00 0.00 0.00 57 1003.9
20260831001535 67 11 7.0 13.0 0.00 0.00 0.00 56 1003.7
20260831000025 67 33 10.0 16.0 0.00 0.00 0.00 56 1003.7
20260830234527 66 350 10.0 20.0 0.00 0.00 0.00 57 1003.7